Location: Broek
(53.2737°N, 5.9967°E)
Time: 21:38:48
(UTC+00:00)

Cosmos 1346 Rocket - Pass Details

Date: 10 October 2024
Orbit: 496 x 514 km, 81.2° (Epoch: 10 November)

Event Time Altitude Azimuth Distance (km) Brightness Sun altitude
Rises 18:02:38 0° 200° (SSW) 2,639 6.5 -11.6°
Reaches altitude 10° 18:04:47 10° 203° (SSW) 1,756 5.6 -11.9°
Maximum altitude 18:08:37 64° 286° (WNW) 583 3.2 -12.5°
Drops below altitude 10° 18:12:28 10° 8° (N) 1,765 5.4 -13.0°
Sets 18:14:38 0° 12° (NNE) 2,655 6.3 -13.4°
